Date,TemperatureHighF,TemperatureAvgF,TemperatureLowF,DewpointHighF,DewpointAvgF,DewpointLowF,HumidityHigh,HumidityAvg,HumidityLow,PressureMaxIn,PressureMinIn,WindSpeedMaxMPH,WindSpeedAvgMPH,GustSpeedMaxMPH,PrecipitationSumIn
2013-2-1,45.6,31.5,19.2,24.1,14.0,3.5,65,49,32,30.50,30.17,15,2,15,0.00
2013-2-2,60.4,43.8,28.3,34.1,29.2,22.8,85,59,33,30.29,30.19,10,1,0,0.00
2013-2-3,58.1,49.2,38.4,32.5,28.0,22.8,67,46,27,30.31,29.92,11,2,0,0.00
2013-2-4,69.9,58.2,51.6,41.0,35.1,29.5,53,43,24,29.92,29.79,11,4,0,0.00
2013-2-5,70.7,56.8,33.7,43.9,36.1,31.0,90,50,25,30.03,29.96,6,1,0,0.00
2013-2-6,64.5,53.2,39.3,52.7,42.1,34.3,85,67,50,30.04,29.86,16,4,17,0.00
2013-2-7,60.6,53.1,44.5,55.9,48.5,38.4,93,84,72,30.14,29.81,10,3,0,0.03
2013-2-8,52.8,42.7,35.3,38.3,34.3,31.3,88,73,49,30.33,30.14,8,1,0,0.00
2013-2-9,43.4,41.6,39.9,37.6,35.6,34.0,86,79,73,30.17,29.95,14,4,15,0.03
2013-2-10,63.1,57.2,51.8,52.6,35.1,24.5,96,48,25,29.87,29.64,21,7,21,0.17
2013-2-11,55.7,47.2,35.7,29.4,26.1,23.3,68,45,29,30.23,30.10,8,1,0,0.00
2013-2-12,43.2,39.6,34.5,39.1,32.7,27.0,94,78,55,30.13,29.95,9,1,0,0.25
2013-2-13,56.5,43.2,35.6,38.4,34.4,29.9,95,74,40,30.06,29.94,11,3,15,0.02
2013-2-14,61.6,48.3,36.3,36.8,31.6,26.3,69,54,37,30.21,29.97,9,1,0,0.00
2013-2-15,47.6,38.9,31.4,32.8,20.7,11.4,74,50,24,30.41,30.21,11,2,0,0.00
2013-2-16,46.6,37.2,27.2,29.1,18.2,11.4,76,48,29,30.41,30.08,12,2,14,0.00
2013-2-17,69.8,53.2,36.9,35.9,29.9,22.1,70,44,21,30.08,29.74,19,5,19,0.00
2013-2-18,61.9,56.6,44.1,51.5,39.8,26.8,73,54,38,30.12,29.61,21,7,26,0.00
2013-2-24,60.9,53.5,41.0,40.9,37.2,32.0,71,55,44,29.95,29.75,15,4,16,0.00
2013-2-25,47.4,40.7,34.3,38.4,35.9,32.7,95,84,63,29.81,29.45,14,3,16,1.02
2013-2-26,43.3,38.2,34.0,35.0,33.2,29.9,95,82,70,29.93,29.48,13,3,14,0.10
2013-2-27,49.7,38.8,31.7,33.7,29.6,27.1,90,71,43,30.17,29.92,15,3,17,0.00
2013-2-28,49.2,39.7,31.8,32.2,29.4,27.1,85,67,49,30.24,30.16,14,2,17,0.00